Hourly Data Report for August 26, 2004

SHERBROOKE A
QUEBEC

45°26'00.000" N
71°41'00.000" W
241.40 m
7028124
71610
YSC

Download Data

Hourly Data (August 2004)
Hourly Data Report for August 26, 2004
TIME
LST
Temp Definition
°C
Dew Point Definition
°C
Rel Hum Definition
%
Precip. Amount Definition
mm

Wind Dir Definition
10's deg

Wind Spd Definition
km/h
Visibility Definition
km
Stn Press Definition
kPa
Hmdx Definition


Wind Chill Definition


Weather Definition


00:00 12.8 11.5 92     0 15.0 99.53      
01:00 11.9 11.3 96     0 15.0 99.53      
02:00 12.1 11.2 94   9 6 15.0 99.55      
03:00 12.2 11.2 94   11 6 15.0 99.53      
04:00 11.5 10.6 94     0 15.0 99.56      
05:00 11.5 10.6 94     0 15.0 99.58      
06:00 14.7 13.1 90   11 4 15.0 99.57      
07:00 24.4 10.4 41   17 11 24.1 99.59 26   Mainly Clear
08:00 19.8 15.7 77   17 4 24.1 99.55     Mainly Clear
09:00 21.8 15.8 69   21 9 24.1 99.49 26   Mainly Clear
10:00 22.8 16.3 67   21 17 24.1 99.44 28   Mainly Clear
11:00 24.3 16.7 63   19 11 24.1 99.37 29   Mainly Clear
12:00 25.6 17.5 61   21 13 24.1 99.30 31   Mainly Clear
13:00 26.1 17.3 58   19 13 24.1 99.28 32   Mainly Clear
14:00 26.5 16.8 55   19 15 24.1 99.22 32   Mainly Clear
15:00 26.4 16.8 56   22 11 19.3 99.19 32   Mainly Clear
16:00 26.0 16.6 56   19 17 19.3 99.17 31   Mostly Cloudy
17:00 24.9 16.7 60   20 9 15.0 99.16 30    
18:00 23.1 16.7 67   19 7 15.0 99.18 28    
19:00 20.8 16.6 77   16 7 12.9 99.17 26    
20:00 20.4 16.0 76   15 9 12.9 99.19 25    
21:00 19.1 15.6 80   14 7 11.3 99.17      
22:00 16.8 15.3 91   4 4 6.4 99.16      
23:00 16.3 14.7 90   14 6 8.0 99.16      

Notes on Data Quality.

Legend

  • E = Estimated
  • M = Missing
  • NA = Not Available*
  • [empty] = Indicates an unobserved value
Date modified: